Vorticity
nan nan nan nan nan nan nan nan nan nan nan nan nan nan nan nan nan nan nan nan nan nan nan nan nan nan nan nan nan nan nan nan nan nan nan nan nan nan nan nan nan nan nan nan nan nan nan nan nan
nan 2 0 2 7 11 4 3 10 9 7 7 7 7 0 7 16 13 8 7 6 5 6 7 6 5 5 6 5 5 5 4 5 5 6 8 7 5 6 5 5 5 6 7 8 9 7 5 nan
nan 6 6 17 4 6 8 6 5 9 6 5 4 8 13 13 11 8 6 6 4 4 6 7 7 5 5 6 5 5 5 5 6 5 6 6 5 5 5 4 5 5 5 6 7 8 7 6 nan
nan 7 2 5 14 10 9 6 9 6 2 7 7 13 12 6 7 14 8 3 4 5 8 5 5 6 6 5 5 5 5 6 6 6 5 5 5 5 5 5 5 6 8 8 9 9 8 6 nan
nan 4 9 5 10 5 4 -0 9 13 3 5 13 9 7 5 15 8 5 5 5 6 5 8 5 5 5 6 5 5 5 6 6 6 5 5 5 5 4 5 6 6 7 8 7 10 11 10 nan
nan 3 6 8 6 5 9 3 1 4 11 9 15 4 5 12 8 6 4 6 5 8 5 4 6 6 5 5 5 5 5 6 6 6 5 5 5 4 4 5 5 4 4 6 8 7 9 11 nan
nan 7 12 6 3 10 2 1 7 6 8 9 6 4 8 9 4 7 5 6 7 5 7 6 5 4 5 6 5 5 5 6 6 5 5 5 5 4 3 3 4 4 5 5 7 7 7 6 nan
nan 8 11 13 2 11 7 6 1 9 12 7 8 7 14 9 6 5 6 5 6 4 5 6 6 6 4 6 6 4 5 5 6 6 4 4 4 4 6 6 3 3 5 6 5 6 5 4 nan
nan 8 12 9 6 2 7 5 3 10 6 4 9 22 20 6 7 4 6 5 5 6 7 6 5 6 6 6 6 5 6 4 5 5 5 2 6 10 2 3 6 4 5 4 5 4 4 3 nan
nan 1 7 5 13 7 9 6 8 1 3 8 7 17 13 7 5 5 4 5 7 5 6 6 7 6 6 5 7 6 6 5 5 5 5 4 2 8 11 6 6 3 4 6 7 5 5 2 nan
nan 2 6 7 4 11 7 10 4 10 9 9 11 7 6 6 6 5 6 5 6 6 6 5 7 6 5 5 4 6 6 7 6 7 4 9 9 4 4 7 6 9 8 8 8 9 9 9 nan
nan 6 -2 6 9 9 5 6 1 6 12 19 15 9 7 6 6 5 6 7 7 7 5 6 7 3 4 5 6 6 6 7 8 10 7 3 5 9 9 10 7 5 5 6 9 9 9 12 nan
nan 4 6 0 3 9 8 4 4 9 9 13 10 8 6 6 6 7 6 6 6 8 7 7 3 6 5 5 7 6 7 8 7 9 7 4 5 7 7 7 4 12 10 8 8 7 8 7 nan
nan 5 6 2 7 10 3 4 7 12 8 9 7 6 6 6 6 7 7 7 7 8 8 7 4 8 5 5 6 7 9 7 7 7 8 6 6 6 3 10 9 6 7 9 7 6 8 4 nan
nan 13 4 6 9 7 12 5 8 7 7 7 5 6 6 7 6 6 7 7 9 7 9 7 8 7 6 7 6 6 8 5 8 6 7 8 8 3 7 5 6 10 5 7 8 6 8 7 nan
nan 9 9 11 8 9 12 10 7 4 8 6 6 6 7 8 5 6 6 7 8 6 8 8 8 6 6 6 5 6 7 8 7 8 8 9 5 4 8 6 6 9 8 6 6 8 6 8 nan
nan 7 9 5 9 8 9 8 17 5 7 6 8 6 7 7 7 6 5 6 4 8 6 8 8 5 7 5 5 7 6 7 7 7 9 9 5 7 8 5 10 5 6 8 8 9 7 8 nan
nan 5 5 7 7 7 4 8 14 8 6 4 9 7 7 7 8 5 7 5 6 7 5 6 6 9 7 5 7 7 7 8 7 7 8 6 7 7 8 4 9 6 8 9 5 5 9 5 nan
nan 13 8 5 10 11 3 10 -1 8 5 7 8 8 7 8 8 8 7 6 6 5 6 6 6 7 5 7 7 7 8 7 8 8 9 7 6 8 5 10 9 3 5 7 9 11 6 6 nan
nan 8 11 10 11 4 8 4 8 5 3 6 7 7 9 8 8 9 7 7 6 5 6 6 6 6 5 4 7 9 8 9 9 8 10 9 7 7 6 6 6 8 10 9 6 7 9 10 nan
nan 10 6 7 9 4 8 11 7 -0 8 11 4 7 10 8 9 8 10 8 6 6 7 6 8 7 7 5 5 5 7 9 10 11 11 12 10 9 7 7 4 6 12 9 11 8 8 9 nan
nan 10 6 10 4 11 4 10 13 8 5 4 7 8 8 11 10 9 8 8 8 7 6 8 8 8 7 9 4 7 6 7 6 9 12 13 14 8 7 8 8 5 7 9 8 8 9 8 nan
nan 12 16 9 7 4 9 5 6 18 14 7 4 8 9 9 12 12 9 7 8 8 6 8 9 9 8 6 6 6 7 5 6 9 10 7 11 10 8 6 7 8 7 8 7 7 7 8 nan
nan 12 11 15 13 10 8 4 10 6 7 9 8 9 9 11 12 14 12 10 9 9 7 6 8 8 9 8 8 5 7 5 9 8 5 9 9 9 10 9 8 8 7 7 9 8 7 5 nan
nan 7 9 11 9 10 13 10 3 4 13 14 10 5 10 17 16 16 14 10 9 9 7 8 10 8 9 8 9 8 8 11 8 8 8 10 8 11 13 9 8 9 9 9 9 10 9 10 nan
nan 1 4 7 6 15 15 8 11 7 10 10 6 12 13 12 19 20 14 14 10 10 9 9 8 9 11 14 13 13 8 8 11 9 10 11 9 11 11 12 11 9 9 10 10 9 10 12 nan
nan 12 3 6 8 8 7 14 18 16 12 12 10 11 17 13 7 9 22 22 14 12 11 12 11 15 11 9 10 8 6 12 9 10 10 10 11 12 11 10 11 12 11 9 9 10 9 7 nan
nan 13 16 9 8 9 14 12 20 20 8 4 7 11 13 15 13 14 18 19 23 24 25 19 13 11 11 9 6 6 5 1 7 11 14 10 13 11 9 9 10 10 11 10 6 7 9 7 nan
nan 5 5 3 9 14 16 7 1 6 11 10 11 5 9 10 12 17 20 17 17 19 21 19 14 7 6 3 2 4 7 5 10 10 12 13 12 11 10 11 12 9 6 8 7 7 9 9 nan
nan nan nan nan nan nan nan nan nan nan nan nan nan nan nan nan nan nan nan nan nan nan nan nan nan nan nan nan nan nan nan nan nan nan nan nan nan nan nan nan nan nan nan nan nan nan nan nan nan
CAPE
0 0 0 116 411 313 94 54 61 23 3 1 0 117 7 497 984 447 0 0 7 0 58 48 492 179 157 102 86 149 298 360 354 424 763 1177 1235 1428 1238 1328 1206 1104 1128 1120 905 441 582 1314 1055
0 0 0 152 337 77 89 70 20 0 0 0 0 24 65 822 461 0 0 0 0 0 0 21 107 161 118 94 123 308 372 358 419 677 1119 1077 1120 1072 1001 862 736 597 455 480 772 794 431 817 880
0 0 1 324 402 96 137 50 21 5 2 1 32 1 129 492 0 0 0 2 0 0 0 188 285 162 121 74 234 325 296 341 473 759 973 1122 1148 944 875 583 200 11 2 3 59 361 493 488 786
0 0 0 314 91 47 59 56 3 8 1 0 0 268 326 16 177 109 0 3 0 0 8 190 391 161 100 98 243 167 171 316 669 848 931 977 869 811 689 237 13 104 324 327 316 205 189 547 867
0 0 80 132 81 41 8 0 5 33 0 0 0 291 382 353 280 25 2 0 0 0 8 81 315 137 70 58 154 130 106 347 781 811 839 826 798 663 336 77 184 757 648 552 343 455 764 273 348
0 0 111 103 60 30 62 39 17 0 0 0 0 139 575 483 263 87 4 0 0 0 0 0 189 128 68 57 139 89 96 253 745 791 789 799 691 440 189 90 141 370 495 705 889 796 890 1534 988
0 8 54 161 36 110 123 71 62 7 16 0 0 160 585 649 317 24 0 0 0 0 0 0 0 83 97 92 107 68 76 144 557 821 701 618 561 374 154 83 68 66 76 218 392 787 1044 1038 919
0 0 34 25 40 82 54 117 6 141 1 0 0 159 420 495 368 0 0 0 0 0 0 0 0 0 0 1 104 68 52 66 216 634 596 433 401 291 105 423 77 63 19 85 187 269 367 601 710
0 0 83 50 8 38 47 149 134 115 2 0 0 0 358 427 34 0 0 0 0 0 0 0 0 0 0 0 11 55 47 37 58 215 421 743 165 135 39 87 16 58 5 0 72 105 141 292 533
0 0 28 0 0 64 46 156 133 200 1 8 0 243 646 315 33 0 0 0 0 0 0 0 0 0 0 0 0 0 5 0 0 15 27 397 419 437 115 24 26 94 58 0 0 33 237 407 49
0 0 0 0 0 0 103 203 30 94 33 22 2 137 287 156 1 0 0 0 0 0 0 0 0 0 0 0 0 0 3 43 230 282 480 518 370 192 44 140 53 373 66 72 10 4 23 153 99
0 0 0 0 0 0 97 253 13 65 0 0 0 0 9 0 0 0 0 0 0 0 0 0 0 0 0 0 0 0 0 35 130 270 526 636 966 805 1087 549 627 568 99 52 29 21 7 28 20
0 0 0 0 0 2 109 122 157 83 0 0 0 0 0 0 0 0 0 0 0 0 0 0 0 0 0 0 0 0 0 0 27 240 476 582 898 2093 1260 836 362 93 31 62 21 51 47 24 19
0 0 0 0 0 0 84 88 130 179 11 0 0 0 0 0 0 0 0 0 0 0 0 0 0 9 0 0 0 0 0 0 111 290 637 858 1038 2353 1252 798 689 82 35 22 23 25 49 30 20
0 0 0 0 0 0 0 118 70 348 180 3 0 0 0 0 0 0 0 0 0 0 0 0 0 49 121 9 0 45 14 23 181 418 828 948 1268 1449 1354 1264 476 508 153 94 127 14 15 59 44
0 0 0 0 0 0 0 173 33 209 250 59 0 0 0 0 0 0 0 0 0 0 7 0 0 57 367 180 78 48 63 66 177 402 730 1174 1511 1450 1604 767 648 858 162 214 189 150 100 83 101
0 0 0 3 0 36 0 56 36 60 201 149 33 2 0 0 27 41 26 46 54 84 221 419 8 36 579 640 345 460 529 304 267 535 850 1394 1375 1419 1511 1088 324 719 569 278 216 240 186 399 201
0 0 0 0 0 6 3 53 249 110 101 226 119 59 25 33 74 95 123 187 291 398 452 967 905 1130 1769 1151 1108 386 239 330 382 495 702 1007 1322 1007 1334 970 547 817 984 408 411 578 356 282 298
0 0 0 0 2 1 33 11 95 130 110 154 237 168 188 147 167 186 250 282 354 638 1543 2069 2143 3056 1632 1299 1204 835 596 689 443 427 605 927 1189 1543 1345 790 1460 1100 1201 928 1072 787 840 509 371
0 0 0 0 0 0 11 26 37 57 105 97 107 173 193 250 251 255 366 426 496 1192 2153 2442 2665 3788 3012 1674 2058 1539 1673 1071 977 862 1336 1081 1194 1529 1150 1380 1521 1807 893 1233 1074 1143 801 567 501
0 0 0 0 0 0 0 16 41 8 49 141 112 152 147 231 370 303 325 520 552 1441 2679 2699 3310 3834 3676 3144 2605 2701 2111 2270 1543 1592 1456 1644 1662 1604 1726 1496 1920 2815 1488 1610 2188 1654 1287 863 980
0 0 0 0 0 0 0 0 17 12 14 16 43 62 119 177 255 399 330 552 781 1230 1720 3090 3790 4252 4201 4299 2640 3095 2072 1853 1726 2647 1734 2062 2179 1913 1988 2490 2123 2606 2087 2013 1878 1462 1861 1892 1247
0 0 0 0 0 0 0 0 0 3 0 0 0 0 23 48 154 269 357 495 754 988 1782 2980 3814 4365 4172 4187 3530 2649 2891 1913 1846 2935 3351 3492 3272 2449 1698 2055 2394 2576 3468 2641 1904 1832 1438 1009 1605
0 0 0 0 0 0 0 0 0 0 1 0 0 0 0 2 52 121 300 656 606 799 1049 1865 3295 3906 3982 3509 3580 4336 3747 3163 2289 2645 3148 2723 2423 2120 2410 1781 2098 2458 2387 2369 1866 1371 1832 2343 2289
0 0 0 0 0 0 0 0 0 0 0 0 0 0 0 0 50 89 152 386 556 717 906 1379 2143 2715 2861 2947 3050 2968 3559 3922 3305 3172 3968 2566 2235 2428 2585 2462 2904 2678 2519 2119 1702 1208 1672 1735 1634
0 0 0 11 12 4 2 0 0 0 0 0 0 0 0 0 3 106 186 365 571 759 999 1017 1652 2349 2595 2579 2557 2664 2573 3295 2946 2719 3734 3283 2098 2058 2169 2277 2334 1995 1714 1341 1074 1370 1242 1169 889
0 0 0 0 0 0 0 14 0 0 0 0 0 0 0 0 127 150 98 347 522 730 1482 1824 1747 2363 2466 2364 1810 1328 1244 2071 2491 2225 2136 2200 2995 2027 1864 1737 1560 1219 968 900 856 807 892 770 249
0 1 1 0 0 0 20 44 52 19 2 0 0 2 200 774 671 473 314 485 698 759 946 2619 2858 2137 625 362 91 3 31 228 1341 2564 2445 2356 2087 1741 1474 1185 800 739 580 413 546 209 318 227 49
0 0 0 0 5 35 64 81 42 22 8 1 0 1 63 931 1429 1037 780 1131 1323 2920 2926 1687 1447 486 401 173 67 3 0 13 316 1599 1998 1623 1582 1350 921 880 733 398 226 210 348 8 2 0 2
0 1 21 31 30 10 4 7 1 21 27 1 0 3 327 1530 1539 1592 2006 1925 2856 2875 2467 1217 1078 805 294 193 15 1 0 0 692 1318 1590 1416 1234 959 812 591 284 61 4 0 0 0 0 0 1